📊 Raw Sensor Data

Showing records 46901 to 46925 of 85,078 total

ID Distance (ft) Battery V Battery A Int Temp (°F) Int Humid (%) Ext Temp (°F) Solar V RSSI SNR Time Stamp
38190 -- 3.95 26 81 45 75 4.50 -86 7 04/18/2025 06:45 PM
38189 -- 4.01 34 82 45 76 4.50 -89 6 04/18/2025 06:30 PM
38188 -- 3.92 7 84 44 76 5.10 -87 6 04/18/2025 06:15 PM
38187 -- 4.11 7 84 43 77 5.10 -87 8 04/18/2025 06:00 PM
38186 -- 3.92 8 85 43 77 5.10 -96 7 04/18/2025 05:45 PM
38185 -- 3.93 8 85 42 77 5.10 -84 8 04/18/2025 05:30 PM
38184 -- 4.07 8 85 42 78 5.10 -84 8 04/18/2025 05:15 PM
38183 -- 3.99 8 85 42 78 5.10 -84 8 04/18/2025 05:00 PM
38182 -- 3.92 8 85 41 77 5.10 -84 8 04/18/2025 04:46 PM
38181 -- 3.92 8 86 41 78 5.10 -86 7 04/18/2025 04:30 PM
38180 15.3 3.92 8 85 40 78 5.10 -84 8 04/18/2025 04:15 PM
38179 -- 3.92 0 85 40 77 5.10 -93 7 04/18/2025 04:00 PM
38178 15.3 3.95 8 85 40 76 5.10 -82 8 04/18/2025 03:45 PM
38177 15.2 3.92 8 85 39 76 5.10 -87 7 04/18/2025 03:30 PM
38176 -- 3.92 0 84 39 76 5.10 -91 8 04/18/2025 03:15 PM
38175 15.2 3.92 8 83 39 75 5.10 -86 7 04/18/2025 03:00 PM
38174 15.3 3.92 9 83 39 75 5.10 -87 8 04/18/2025 02:45 PM
38173 15.2 3.92 9 82 38 74 5.10 -86 6 04/18/2025 02:30 PM
38172 15.2 4.11 9 82 38 74 5.10 -87 7 04/18/2025 02:15 PM
38171 15.3 3.96 9 81 38 73 5.10 -90 8 04/18/2025 02:00 PM
38170 -- 4.06 9 80 37 72 5.10 -85 8 04/18/2025 01:45 PM
38169 15.3 3.91 0 78 38 72 5.10 -85 7 04/18/2025 01:31 PM
38168 -- 3.91 9 76 38 70 5.10 -85 8 04/18/2025 01:15 PM
38167 -- 3.91 9 75 38 69 5.10 -88 8 04/18/2025 01:00 PM
38166 -- 4.06 9 72 39 67 5.10 -84 8 04/18/2025 12:45 PM